TimeCST,TemperatureF,Dew PointF,Humidity,Sea Level PressureIn,VisibilityMPH,Wind Direction,Wind SpeedMPH,Gust SpeedMPH,PrecipitationIn,Events,Conditions,WindDirDegrees,DateUTC
12:12 AM,39.2,30.2,70,29.97,10.0,South,10.4,18.4,N/A,,Overcast,170,2012-11-08 06:12:00
12:32 AM,39.2,32.0,75,29.97,10.0,South,9.2,16.1,N/A,,Mostly Cloudy,180,2012-11-08 06:32:00
12:52 AM,39.2,32.0,75,29.96,10.0,South,10.4,-,N/A,,Scattered Clouds,170,2012-11-08 06:52:00
1:13 AM,39.2,32.0,75,29.96,10.0,South,11.5,17.3,N/A,,Clear,170,2012-11-08 07:13:00
1:33 AM,39.2,32.0,75,29.95,10.0,South,9.2,-,N/A,,Clear,170,2012-11-08 07:33:00
1:52 AM,39.2,32.0,75,29.95,10.0,South,10.4,-,N/A,,Clear,170,2012-11-08 07:52:00
2:12 AM,39.2,32.0,75,29.94,10.0,SSE,11.5,-,N/A,,Clear,160,2012-11-08 08:12:00
2:33 AM,39.2,30.2,70,29.92,10.0,SSE,15.0,19.6,N/A,,Clear,160,2012-11-08 08:33:00
2:52 AM,39.2,32.0,75,29.91,10.0,SSE,13.8,18.4,N/A,,Clear,160,2012-11-08 08:52:00
3:12 AM,37.4,30.2,75,29.92,10.0,South,9.2,18.4,N/A,,Scattered Clouds,170,2012-11-08 09:12:00
3:33 AM,37.4,30.2,75,29.92,10.0,South,11.5,16.1,N/A,,Clear,170,2012-11-08 09:33:00
3:52 AM,37.4,30.2,75,29.91,10.0,SSE,11.5,18.4,N/A,,Clear,160,2012-11-08 09:52:00
4:13 AM,37.4,30.2,75,29.90,10.0,SSE,11.5,-,N/A,,Clear,150,2012-11-08 10:13:00
4:33 AM,37.4,30.2,75,29.90,10.0,SSE,9.2,16.1,N/A,,Clear,160,2012-11-08 10:33:00
4:52 AM,37.4,30.2,75,29.90,10.0,South,10.4,-,N/A,,Clear,170,2012-11-08 10:52:00
5:13 AM,37.4,30.2,75,29.91,10.0,South,6.9,-,N/A,,Clear,180,2012-11-08 11:13:00
5:32 AM,35.6,30.2,81,29.91,10.0,South,8.1,-,N/A,,Clear,170,2012-11-08 11:32:00
5:52 AM,35.6,30.2,81,29.90,10.0,South,6.9,-,N/A,,Clear,170,2012-11-08 11:52:00
6:12 AM,35.6,30.2,81,29.89,10.0,SSE,5.8,-,N/A,,Clear,160,2012-11-08 12:12:00
6:32 AM,35.6,30.2,81,29.89,10.0,South,4.6,-,N/A,,Clear,170,2012-11-08 12:32:00
6:53 AM,33.8,30.2,87,29.90,10.0,South,5.8,-,N/A,,Clear,180,2012-11-08 12:53:00
7:13 AM,33.8,30.2,87,29.90,10.0,South,4.6,-,N/A,,Clear,170,2012-11-08 13:13:00
7:33 AM,35.6,30.2,81,29.92,10.0,South,3.5,-,N/A,,Clear,190,2012-11-08 13:33:00
7:53 AM,35.6,30.2,81,29.92,10.0,South,5.8,-,N/A,,Clear,180,2012-11-08 13:53:00
8:13 AM,35.6,30.2,81,29.92,10.0,South,5.8,-,N/A,,Clear,170,2012-11-08 14:13:00
8:33 AM,37.4,30.2,75,29.92,10.0,South,8.1,-,N/A,,Clear,180,2012-11-08 14:33:00
8:53 AM,37.4,30.2,75,29.92,10.0,South,4.6,-,N/A,,Clear,190,2012-11-08 14:53:00
9:13 AM,39.2,30.2,70,29.92,10.0,SSW,9.2,-,N/A,,Clear,200,2012-11-08 15:13:00
9:33 AM,39.2,32.0,75,29.92,10.0,South,5.8,-,N/A,,Clear,190,2012-11-08 15:33:00
9:53 AM,41.0,32.0,70,29.92,10.0,South,4.6,-,N/A,,Clear,190,2012-11-08 15:53:00
10:12 AM,41.0,32.0,70,29.92,10.0,SSW,8.1,-,N/A,,Clear,200,2012-11-08 16:12:00
10:33 AM,42.8,32.0,66,29.92,5.0,Calm,Calm,-,N/A,,Haze,0,2012-11-08 16:33:00
10:53 AM,42.8,32.0,66,29.93,7.0,Calm,Calm,-,N/A,,Clear,0,2012-11-08 16:53:00
11:10 AM,42.8,32.0,66,29.93,7.0,West,4.6,-,N/A,,Clear,280,2012-11-08 17:10:00
11:33 AM,44.6,32.0,61,29.93,10.0,West,9.2,-,N/A,,Clear,260,2012-11-08 17:33:00
11:53 AM,46.4,33.8,62,29.92,10.0,WNW,6.9,-,N/A,,Clear,290,2012-11-08 17:53:00
12:12 PM,46.4,33.8,62,29.92,10.0,West,6.9,-,N/A,,Clear,260,2012-11-08 18:12:00
12:32 PM,46.4,33.8,62,29.92,10.0,West,8.1,-,N/A,,Clear,280,2012-11-08 18:32:00
12:53 PM,48.2,33.8,58,29.93,10.0,NW,9.2,-,N/A,,Clear,320,2012-11-08 18:53:00
1:13 PM,48.2,35.6,62,29.93,10.0,NW,6.9,-,N/A,,Clear,320,2012-11-08 19:13:00
1:32 PM,48.2,35.6,62,29.93,10.0,WNW,3.5,-,N/A,,Clear,300,2012-11-08 19:32:00
1:53 PM,48.2,35.6,62,29.94,10.0,NNW,8.1,-,N/A,,Clear,330,2012-11-08 19:53:00
2:13 PM,48.2,35.6,62,29.94,10.0,NNW,4.6,-,N/A,,Scattered Clouds,340,2012-11-08 20:13:00
2:33 PM,48.2,35.6,62,29.95,10.0,NNW,9.2,-,N/A,,Clear,340,2012-11-08 20:33:00
2:53 PM,44.6,35.6,71,29.97,10.0,NNW,11.5,-,N/A,,Clear,340,2012-11-08 20:53:00
3:13 PM,42.8,35.6,76,29.98,10.0,NNW,11.5,-,N/A,,Mostly Cloudy,340,2012-11-08 21:13:00
3:33 PM,41.0,35.6,81,30.00,10.0,North,16.1,19.6,N/A,,Overcast,360,2012-11-08 21:33:00
3:52 PM,39.2,35.6,87,30.01,10.0,North,10.4,-,N/A,,Overcast,360,2012-11-08 21:52:00
4:13 PM,39.2,35.6,87,30.02,10.0,NNW,3.5,-,N/A,,Overcast,340,2012-11-08 22:13:00
4:33 PM,41.0,33.8,76,30.02,10.0,North,5.8,-,N/A,,Overcast,350,2012-11-08 22:33:00
4:53 PM,41.0,33.8,76,30.02,10.0,North,6.9,-,N/A,,Overcast,350,2012-11-08 22:53:00
5:12 PM,41.0,33.8,76,30.03,10.0,North,5.8,-,N/A,,Overcast,350,2012-11-08 23:12:00
5:33 PM,41.0,35.6,81,30.04,10.0,North,6.9,-,N/A,,Overcast,10,2012-11-08 23:33:00
5:53 PM,41.0,35.6,81,30.04,10.0,NNE,10.4,16.1,N/A,,Overcast,20,2012-11-08 23:53:00
6:13 PM,41.0,33.8,76,30.05,10.0,North,9.2,-,N/A,,Overcast,360,2012-11-09 00:13:00
6:33 PM,41.0,33.8,76,30.05,10.0,North,8.1,-,N/A,,Overcast,360,2012-11-09 00:33:00
6:52 PM,41.0,33.8,76,30.05,10.0,North,6.9,-,N/A,,Overcast,360,2012-11-09 00:52:00
7:12 PM,39.2,33.8,81,30.06,10.0,North,4.6,-,N/A,,Overcast,360,2012-11-09 01:12:00
7:33 PM,39.2,33.8,81,30.07,10.0,North,6.9,-,N/A,,Overcast,360,2012-11-09 01:33:00
7:52 PM,39.2,33.8,81,30.06,10.0,North,9.2,-,N/A,,Overcast,10,2012-11-09 01:52:00
8:13 PM,39.2,33.8,81,30.07,10.0,North,8.1,-,N/A,,Overcast,10,2012-11-09 02:13:00
8:32 PM,39.2,33.8,81,30.07,10.0,North,8.1,-,N/A,,Overcast,10,2012-11-09 02:32:00
8:53 PM,39.2,33.8,81,30.07,10.0,North,8.1,-,N/A,,Overcast,10,2012-11-09 02:53:00
9:13 PM,39.2,33.8,81,30.08,10.0,North,6.9,-,N/A,,Overcast,10,2012-11-09 03:13:00
9:32 PM,39.2,33.8,81,30.08,10.0,North,6.9,-,N/A,,Overcast,10,2012-11-09 03:32:00
9:53 PM,39.2,33.8,81,30.09,10.0,NNE,9.2,-,N/A,,Overcast,20,2012-11-09 03:53:00
10:13 PM,39.2,33.8,81,30.09,10.0,North,6.9,-,N/A,,Overcast,10,2012-11-09 04:13:00
10:33 PM,37.4,33.8,87,30.09,10.0,NNE,4.6,-,N/A,,Overcast,20,2012-11-09 04:33:00
10:53 PM,37.4,33.8,87,30.09,10.0,North,8.1,-,N/A,,Overcast,360,2012-11-09 04:53:00
11:13 PM,37.4,33.8,87,30.09,10.0,North,5.8,-,N/A,,Overcast,10,2012-11-09 05:13:00
11:32 PM,37.4,33.8,87,30.09,10.0,North,8.1,-,N/A,,Overcast,10,2012-11-09 05:32:00
11:52 PM,37.4,33.8,87,30.09,10.0,North,8.1,-,N/A,,Overcast,10,2012-11-09 05:52:00